SL-14 DEB, 45327

Orbit data source: Space-Track

SL-14 DEB, 45327 is space debris in LEO originally from a launch on Thu, 15 Aug 1991 UTC launched from the Plesetsk Missile And Space Complex (PKMTR). Debris objects in space refer to the collection of defunct objects orbiting the Earth. Examples of debris include non-operational satellites, rocket bodies, and fragments generated from explosions, collisions, or faulty payload assembly.

Loading next visibility...
Identifier
45327, 1991-056BR
Orbit
LEO
Country
Flag of CISCIS
Related business
Manufacturer
Unknown
Mission
Spacecraft
Bus & Motor
Unknown
Mass
Unknown
Launch date (UTC)
1991-08-15 (34 years ago)
Launch vehicle
Unknown
Launch site
Plesetsk Missile And Space Complex (PKMTR)
Object type
Payload
Rocket body
Debris
Shape & HBR
Unknown shape, 0.1 m
Radar Cross Section
Small (<0.1 m²)

Expand to show TLE details & history
Last TLE update: 2 days ago

TLE from 2 days ago
0 SL-14 DEB
1 45327U 91056BR  25285.91217949  .00001681  00000-0  30078-2 0  9992
2 45327  82.5618 264.3846 0078852 136.9807 223.7531 13.40074200276403
Epoch: 2025-10-12T21:53Z
TLE epoch observation values (Epoch: 2025-10-12T21:53:32.307Z)
Latitude
0.00005°
Longitude
-85.72252°
Altitude
1,154.717 km
Speed
7.255 km/s
True Right ascension
17h 37m 32s
True Declination
0° 00' 00"
Sunlit
Object was in daylight at epoch
Visualization orbit readout
Latitude
Unknown
Longitude
Unknown
Altitude
Unknown
Speed
Unknown
Apparent Right ascension
Unknown
Apparent Declination
Unknown
Sunlit
N/A
Visualization observer readout
Local Sidereal Time
23:21:40
Azimuth
Unknown
Elevation
Unknown
Doppler factor
Unknown
Orbital elements
Apogee altitude
1,165.23 km
Perigee altitude
1,047.199 km
Semi-major axis
7,484.352 km
Eccentricity
0.00789
Inclination
82.5618°
RAAN
264.3846°
Arg. of periapsis
136.9807°
True anomaly
223.13266°
Mean anomaly
223.7531°
Eccentric anomaly
223.44244°
Mean motion
3.35206 °/min
Orbital period
107.4 mins
BSTAR
0.0030078
Loading maneuver chart data...
Computing Atmospheric mass density...
Loading historical data...
Loading historical data...
Loading historical data...
Loading historical data...
Loading historical data...
Loading historical data...
Loading historical data...

Documentation

Showing up to 5 results
|